Location: Bois de la Silve
(44.4667°N, 6.7833°E)
Time: 01:21:47
(UTC+00:00)

Cosmos 921 Rocket - Visible Passes

Search period start: 24 October 2020 00:00
Search period end: 03 November 2020 00:00
Orbit: 572 x 632 km, 75.8° (Epoch: 23 October)

Date Brightness Start Highest point End Pass type
(mag) Time Alt. Az. Time Alt. Az. Time Alt. Az.
28 Oct 6.0 04:55:07 10° NNE 04:57:02 12° NE 04:58:58 10° E visible
29 Oct 5.7 05:06:01 10° NNE 05:09:18 19° ENE 05:12:34 10° ESE visible
30 Oct 5.0 05:17:27 10° N 05:21:27 30° ENE 05:25:27 10° SE visible
31 Oct 4.1 05:29:08 10° N 05:33:32 49° ENE 05:37:55 10° SE visible
01 Nov 6.2 04:05:17 10° NE 04:06:29 11° NE 04:07:40 10° ENE visible
01 Nov 3.2 05:40:59 10° NNW 05:45:32 84° ENE 05:50:01 10° SSE visible
02 Nov 5.9 04:15:47 10° NNE 04:18:46 17° ENE 04:21:45 10° E visible
